Home   Weather   Paris Mountain   Past weeks
Flag for USA

Past Weather in Paris Mountain, Georgia, USA — Yesterday and Last 2 Weeks

Now
66 °F

Fog.


Feels Like: 66 °F
Forecast: 76 / 64 °F
Wind: No wind

Location: Lovell Field
Current Time: Sep 25, 2020 at 10:28:23 am
Latest Report: Sep 25, 2020 at 8:53 am
Visibility: 2 mi
Pressure29.94 "Hg
Humidity: 93%
Dew Point: 64 °F
Location of Paris MountainLocation

Past Weather in Paris Mountain — Graph

°F

Paris Mountain Temperature Yesterday

Maximum temperature yesterday: 65 °F (at 5:18 pm)
Minimum temperature yesterday: 63 °F (at 2:39 am)
Average temperature yesterday: 64 °F

High & Low Weather Summary for the Past Weeks

 TemperatureHumidityPressure
High92 °F (Sep 10, 3:53 pm)97% (Sep 24, 7:20 pm)30.41 "Hg (Sep 24, 7:20 pm)
Low50 °F (Sep 22, 5:53 am)29% (Sep 21, 4:53 pm)29.77 "Hg (Sep 17, 4:53 pm)
Average72 °F72%30.07 "Hg
* Reported Sep 10 8:53 am — Sep 25 8:53 am, Paris Mountain. Weather by CustomWeather, © 2020

Note: Actual official high and low records may vary slightly from our data, if they occured in-between our weather recording intervals... More about our weather records

Paris Mountain Weather History for the Previous 24 Hours

Scroll right to see more
 ConditionsComfort  
Time TempWeatherWind HumidityBarometerVisibility
8:53 am
Fri, Sep 25
66 °FFog.No wind93%29.94 "Hg2 mi
7:53 am65 °FFog.5 mph94%29.92 "Hg2 mi
6:53 am65 °FLight rain. Fog.5 mph94%29.90 "Hg1 mi
5:53 am65 °FLight rain. Fog.3 mph97%29.89 "Hg1 mi
5:05 am65 °FLight rain. Fog.5 mph97%29.89 "Hg4 mi
4:53 am65 °FRain. Fog.6 mph94%29.88 "Hg2 mi
4:33 am65 °FLight rain. Fog.5 mph97%29.89 "Hg2 mi
4:18 am65 °FLight rain. Fog.5 mph97%29.89 "Hg2 mi
3:53 am65 °FLight rain. Fog.5 mph97%29.87 "Hg3 mi
3:37 am65 °FLight rain. Fog.3 mph94%29.90 "Hg2 mi
3:21 am65 °FRain. Fog.5 mph97%29.90 "Hg2 mi
2:53 am66 °FOvercast.6 mph90%29.88 "Hg10 mi
2:39 am66 °FMostly cloudy.6 mph90%29.90 "Hg10 mi
2:13 am66 °FLight rain. Mostly cloudy.6 mph90%29.91 "Hg10 mi
1:53 am66 °FLight rain. Mostly cloudy.6 mph90%29.90 "Hg10 mi
1:01 am66 °FLight rain. Overcast.7 mph90%29.92 "Hg10 mi
12:05 am65 °FLight rain. Overcast.9 mph94%29.93 "Hg8 mi
11:53 pm
Thu, Sep 24
65 °FLight rain. Fog.8 mph94%29.91 "Hg1 mi
11:38 pm65 °FRain. Fog.7 mph94%29.93 "Hg1 mi
10:53 pm64 °FRain. Fog.3 mph97%29.92 "Hg1 mi
10:18 pm64 °FHeavy rain. Fog.3 mph97%29.93 "Hg1 mi
9:11 pm64 °FStrong thunderstorms. Fog.12 mph97%29.90 "Hg1 mi
8:53 pm64 °FStrong thunderstorms. Fog.10 mph97%29.90 "Hg1 mi
7:53 pm65 °FRain. Fog.9 mph94%29.91 "Hg2 mi
7:20 pm64 °FHeavy rain. Fog.10 mph97%29.93 "Hg1 mi
6:53 pm65 °FHeavy rain. Fog.8 mph94%29.92 "Hg2 mi
6:11 pm65 °FLight rain. Fog.8 mph94%29.93 "Hg3 mi
5:53 pm65 °FLight rain. Fog.6 mph94%29.93 "Hg4 mi
5:18 pm65 °FLight rain. Fog.7 mph91%29.95 "Hg3 mi
4:53 pm64 °FRain. Fog.8 mph94%29.94 "Hg3 mi
4:35 pm64 °FRain. Fog.8 mph94%29.96 "Hg2 mi
3:53 pm64 °FRain. Fog.8 mph94%29.95 "Hg2 mi
3:23 pm64 °FLight rain. Fog.6 mph94%29.98 "Hg4 mi
2:53 pm64 °FRain. Fog.10 mph94%29.96 "Hg2 mi
2:30 pm64 °FHeavy rain. Fog.8 mph94%30.00 "Hg1 mi
1:53 pm64 °FLight rain. Fog.8 mph90%29.99 "Hg5 mi
1:38 pm64 °FLight rain. Fog.7 mph90%30.01 "Hg4 mi
12:53 pm63 °FLight rain. Fog.3 mph93%30.02 "Hg3 mi
12:09 pm63 °FLight rain. Fog.5 mph93%30.05 "Hg3 mi
11:53 am63 °FRain. Fog.5 mph93%30.04 "Hg3 mi
11:43 am63 °FRain. Fog.6 mph90%30.06 "Hg3 mi
11:09 am63 °FLight rain. Fog.5 mph90%30.07 "Hg4 mi
11:00 am63 °FLight rain. Fog.6 mph90%30.07 "Hg4 mi
10:32 am63 °FLight rain. Fog.6 mph90%30.07 "Hg5 mi
Weather by CustomWeather, © 2020

See weather overview